Bethel, AK

6:22 AM AKDT on April 30, 2017 (GMT -0800)
Bethel

Weather History for PABE - September, 2012

Change the Weather History Date:

Wednesday, September 19, 2012

  Actual Average Record
Temperature  
Mean Temperature 43 °F 44 °F  
Max Temperature 46 °F 51 °F 71 °F (2010)
Min Temperature 39 °F 38 °F 25 °F (1972)
Degree Days  
Heating Degree Days 22 21  
Month to date heating degree days 372 323  
Since 1 July heating degree days 1143 959  
Cooling Degree Days 0 0  
Month to date cooling degree days 0 0  
Year to date cooling degree days 0 4  
Moisture  
Dew Point 41 °F    
Average Humidity 0    
Maximum Humidity 0    
Minimum Humidity 0    
Precipitation  
Precipitation 0.00 in 0.09 in 0.86 in (1924)
Month to date precipitation 2.84 1.81  
Year to date precipitation 16.01 13.23  
Snow  
Snow 0.00 in 0.10 in - ()
Month to date snowfall 0.0 0.2  
Since 1 July snowfall 0.0 0.2  
Since 1 September snowfall 0.0 0.2  
Snow Depth 0.00 in    
Sea Level Pressure  
Sea Level Pressure 29.47 in    
Wind  
Wind Speed 8 mph (SSW)    
Max Wind Speed 14 mph    
Max Gust Speed 18 mph    
Visibility 8 miles    
Events Rain    
T = Trace of Precipitation, MM = Missing Value Source: NWS Daily Summary

Daily Weather History Graph

Daily Weather History Graph

Search for Another Location

Airport or City:

Trip Planner

Search our weather history database for the weather conditions in past years. The results will help you decide how hot, cold, wet, or windy it might be!

Date:

Astronomy

Sep. 19, 2012 Rise Set
Actual Time 8:25 AM AKDT 8:54 PM AKDT
Civil Twilight 7:43 AM AKDT 9:37 PM AKDT
Nautical Twilight 6:50 AM AKDT 10:28 PM AKDT
Astronomical Twilight 5:52 AM AKDT 11:26 PM AKDT
Moon 2:21 PM AKDT (9/19) 9:39 PM AKDT (9/19)
Length of Visible Light 13h 54m
Length of Day
12h 28m
Waxing Crescent, 18% of the Moon is Illuminated
Sep 19
Waxing Crescent
Sep 22
First Quarter
Sep 29
Full
Oct 7
Last Quarter
Oct 15
New

Hourly Weather History & Observations

Time (AKDT) Temp. Windchill Dew Point Humidity Pressure Visibility Wind Dir Wind Speed Gust Speed Precip Events Conditions
12:53 AM 44.1 °F 38.6 °F 42.1 °F 93% 29.44 in 10.0 mi South 10.4 mph - N/A   Overcast
1:53 AM 44.1 °F 38.1 °F 42.1 °F 93% 29.44 in 10.0 mi South 11.5 mph - N/A   Overcast
2:22 AM 44.6 °F 39.7 °F 41.0 °F 87% 29.43 in 10.0 mi South 9.2 mph - N/A   Overcast
2:53 AM 43.0 °F 37.7 °F 41.0 °F 93% 29.44 in 10.0 mi South 9.2 mph - N/A   Mostly Cloudy
3:00 AM 42.8 °F 37.5 °F 41.0 °F 93% 29.43 in 10.0 mi SSE 9.2 mph - N/A   Overcast
3:44 AM 42.8 °F 38.6 °F 41.0 °F 93% 29.42 in 10.0 mi South 6.9 mph - N/A   Overcast
3:53 AM 43.0 °F 38.8 °F 39.9 °F 89% 29.42 in 10.0 mi South 6.9 mph - N/A   Overcast
4:00 AM 42.8 °F 38.6 °F 39.2 °F 87% 29.42 in 10.0 mi South 6.9 mph - N/A   Overcast
4:53 AM 41.0 °F 35.8 °F 39.0 °F 93% 29.41 in 10.0 mi SSW 8.1 mph - N/A   Mostly Cloudy
5:53 AM 41.0 °F 37.1 °F 39.0 °F 93% 29.40 in 10.0 mi SSE 5.8 mph - N/A   Overcast
6:53 AM 42.1 °F 36.6 °F 39.0 °F 89% 29.39 in 10.0 mi South 9.2 mph - N/A   Overcast
7:53 AM 43.0 °F 38.8 °F 39.9 °F 89% 29.39 in 10.0 mi South 6.9 mph - N/A   Overcast
8:53 AM 42.1 °F 40.2 °F 41.0 °F 96% 29.38 in 10.0 mi SSE 3.5 mph - N/A   Overcast
9:53 AM 42.1 °F - 41.0 °F 96% 29.38 in 5.0 mi Calm Calm - N/A   Overcast
10:24 AM 42.8 °F 41.1 °F 41.0 °F 93% 29.38 in 10.0 mi South 3.5 mph - N/A   Overcast
10:53 AM 44.1 °F 40.8 °F 39.9 °F 85% 29.39 in 10.0 mi SSW 5.8 mph - N/A   Overcast
11:53 AM 44.1 °F 39.5 °F 37.9 °F 79% 29.40 in 10.0 mi South 8.1 mph - N/A   Overcast
12:53 PM 46.0 °F 42.5 °F 39.0 °F 76% 29.40 in 10.0 mi SSW 6.9 mph - N/A   Overcast
1:53 PM 46.0 °F 43.1 °F 39.9 °F 79% 29.42 in 10.0 mi WSW 5.8 mph - N/A   Overcast
2:53 PM 46.9 °F - 41.0 °F 80% 29.43 in 10.0 mi South 8.1 mph - N/A   Overcast
3:53 PM 45.0 °F 40.6 °F 43.0 °F 93% 29.44 in 6.0 mi South 8.1 mph - 0.01 in Rain Light Rain
5:53 PM 48.9 °F - 39.0 °F 69% 29.46 in 10.0 mi SW 12.7 mph - N/A   Overcast
6:53 PM 48.0 °F - 39.9 °F 74% 29.49 in 10.0 mi SW 8.1 mph - N/A   Overcast
7:53 PM 45.0 °F 40.1 °F 41.0 °F 86% 29.51 in 10.0 mi SSW 9.2 mph - 0.00 in Rain Light Rain
8:24 PM 44.6 °F 38.1 °F 41.0 °F 87% 29.52 in 7.0 mi SW 13.8 mph 21.9 mph 0.01 in Rain Light Rain
8:36 PM 44.6 °F 40.2 °F 42.8 °F 93% 29.52 in 6.0 mi SSW 8.1 mph - 0.03 in Rain Light Rain
8:48 PM 44.6 °F 40.2 °F 42.8 °F 93% 29.53 in 2.5 mi South 8.1 mph - 0.03 in Rain Rain
8:53 PM 44.1 °F 40.8 °F 42.1 °F 93% 29.54 in 1.8 mi South 5.8 mph - 0.05 in Rain Light Rain
9:01 PM 44.6 °F 40.2 °F 42.8 °F 93% 29.54 in 3.0 mi WSW 8.1 mph - 0.01 in Rain Light Rain
9:53 PM 42.1 °F 37.1 °F 41.0 °F 96% 29.57 in 3.0 mi WSW 8.1 mph - 0.01 in   Mostly Cloudy
10:01 PM 42.8 °F 39.3 °F 41.0 °F 93% 29.56 in 10.0 mi WSW 5.8 mph - N/A   Mostly Cloudy
10:42 PM 39.2 °F 35.0 °F 39.2 °F 100% 29.58 in 10.0 mi SW 5.8 mph - N/A   Scattered Clouds
10:53 PM 39.9 °F 35.8 °F 39.0 °F 97% 29.60 in 10.0 mi SW 5.8 mph - N/A   Mostly Cloudy
11:19 PM 39.2 °F 33.6 °F 37.4 °F 93% 29.61 in 10.0 mi SW 8.1 mph - N/A   Mostly Cloudy
11:35 PM 39.2 °F 34.2 °F 39.2 °F 100% 29.61 in 10.0 mi SW 6.9 mph - N/A   Overcast
11:53 PM 39.0 °F 34.8 °F 39.0 °F 100% 29.62 in 10.0 mi SW 5.8 mph - N/A   Overcast